LA8QT Lodingen NO current weather conditions

sailwx.info

Wind from 323 at 18 knots

Air temperature -1.7° C
Dewpoint -2.5° C

Last reported at 2017-Feb-24 04:52 UTC.
Time now 2017-Feb-24 06:00 UTC

Location: N 68°28' E 016°04'.
View on Google Maps.

See reports from other nearby stations

  
Tides and Currents Weather Stations Pressure Air Temp Water Temp Dewpoint Dewpoint Depression Visibility Wind Speed Wind Dir Waves Ship Positions
date/time (UTC)wind fromknots sea level pressurealtimeterstation pressurevisibilityair tempwater tempwave heightnotes
2017-Feb-24 04:52 323 18 -1.7
2017-Feb-24 04:37 339 20 -1.7
2017-Feb-24 04:22 333 19 -1.1
2017-Feb-24 04:07 310 19 -1.7
2017-Feb-24 03:52 351 18 -1.7
2017-Feb-24 03:37 313 18 -1.1
2017-Feb-24 03:22 313 18 -1.1
2017-Feb-24 03:07 278 18 -0.6
2017-Feb-24 02:52 314 19 -0.6
2017-Feb-24 02:37 331 17 -0.6
2017-Feb-24 02:22 300 14 -0.6
2017-Feb-24 02:07 315 11 -0.6
2017-Feb-24 01:52 329 12 -0.6
2017-Feb-24 01:37 329 11 -1.1
2017-Feb-24 01:22 036 6 -1.7
2017-Feb-24 01:06 315 11 -1.7
2017-Feb-24 00:51 320 10 -2.2
2017-Feb-24 00:36 313 7 -2.2
2017-Feb-24 00:21 327 7 -2.2
2017-Feb-24 00:06 065 -2.2
2017-Feb-23 23:51 139 4 -2.2
2017-Feb-23 23:36 027 8 -2.2
2017-Feb-23 23:21 002 6 -2.8
2017-Feb-23 23:06 320 8 -2.2
2017-Feb-23 22:51 325 5 -2.8
2017-Feb-23 22:36 187 0 -2.8
2017-Feb-23 22:21 348 -3.3
2017-Feb-23 22:06 349 0 -2.8
2017-Feb-23 21:51 350 1 -2.8
2017-Feb-23 21:36 350 -2.8
2017-Feb-23 21:21 027 4 -2.8
2017-Feb-23 21:06 336 5 -2.8
2017-Feb-23 20:51 335 9 -2.2
2017-Feb-23 20:36 021 6 -2.8
2017-Feb-23 20:21 308 6 -2.8
2017-Feb-23 20:06 011 11 -2.8
2017-Feb-23 19:51 021 10 -2.8
2017-Feb-23 19:36 352 8 -2.8
2017-Feb-23 19:21 314 9 -2.8
2017-Feb-23 19:06 318 10 -2.8
2017-Feb-23 18:51 324 9 -2.2
2017-Feb-23 18:36 034 9 -2.2
2017-Feb-23 18:21 023 6 -2.2
2017-Feb-23 18:06 318 9 -2.8
2017-Feb-23 17:51 006 8 -2.8
2017-Feb-23 17:36 306 3 -2.8
2017-Feb-23 17:21 335 4 -2.8
2017-Feb-23 17:06 344 6 -3.3
2017-Feb-23 16:51 356 7 -2.8
2017-Feb-23 16:36 320 9 -2.8
2017-Feb-23 16:21 317 7 -2.8
2017-Feb-23 16:06 358 7 -2.8
2017-Feb-23 15:51 031 10 -1.7
2017-Feb-23 15:36 341 10 -2.2
2017-Feb-23 15:21 344 10 -1.7
2017-Feb-23 15:06 309 0 -3.3
2017-Feb-23 14:51 159 -3.3
2017-Feb-23 14:36 158 -3.3
2017-Feb-23 14:21 159 1 -3.3
2017-Feb-23 14:06 176 0 -3.3
2017-Feb-23 13:51 117 -3.3
2017-Feb-23 13:36 117 0 -3.3
2017-Feb-23 13:21 117 3 -3.9
2017-Feb-23 13:06 101 2 -3.3
2017-Feb-23 12:51 110 2 -3.3
2017-Feb-23 12:36 178 2 -3.3
2017-Feb-23 12:21 176 1 -3.3
2017-Feb-23 12:06 206 0 -3.9
2017-Feb-23 11:51 207 -3.3
2017-Feb-23 11:36 207 -3.3
2017-Feb-23 11:21 207 -3.9
2017-Feb-23 11:06 207 -4.4
2017-Feb-23 10:51 207 0 -4.4
2017-Feb-23 10:36 207 1 -4.4
2017-Feb-23 10:21 318 -4.4
2017-Feb-23 10:06 327 -4.4
2017-Feb-23 09:51 327 -4.4
2017-Feb-23 09:36 327 -5.0
2017-Feb-23 09:21 327 0 -5.0
2017-Feb-23 09:06 327 2 -5.0
2017-Feb-23 08:51 338 1 -5.0
2017-Feb-23 08:36 338 -5.6
2017-Feb-23 08:21 341 1 -5.0
2017-Feb-23 08:06 335 3 -5.0
2017-Feb-23 07:51 344 4 -5.0
2017-Feb-23 07:36 323 6 -5.0
2017-Feb-23 07:21 337 5 -4.4
2017-Feb-23 07:06 334 5 -4.4
2017-Feb-23 06:50 334 2 -4.4
2017-Feb-23 06:36 321 3 -4.4
2017-Feb-23 06:20 314 4 -4.4
2017-Feb-23 06:05 343 5 -4.4
2017-Feb-23 05:50 319 4 -5.0
2017-Feb-23 05:35 312 4 -5.6
2017-Feb-23 05:20 323 4 -5.6
2017-Feb-23 05:05 310 4 -6.1
2017-Feb-23 04:50 313 3 -6.1
2017-Feb-23 04:35 304 4 -6.1
2017-Feb-23 04:20 315 5 -5.6
2017-Feb-23 04:05 317 4 -5.6
2017-Feb-23 03:50 321 5 -5.6
2017-Feb-23 03:35 314 6 -5.6
2017-Feb-23 03:20 304 7 -5.6
2017-Feb-23 03:06 317 7 -5.0
2017-Feb-23 02:50 336 6 -5.0
2017-Feb-23 02:35 327 8 -4.4
2017-Feb-23 02:20 023 6 -4.4
2017-Feb-23 02:05 322 6 -5.0
2017-Feb-23 01:50 327 7 -5.0
2017-Feb-23 01:35 317 6 -5.0
2017-Feb-23 01:20 318 7 -5.0
2017-Feb-23 01:05 318 6 -5.0
2017-Feb-23 00:50 324 7 -5.0
2017-Feb-23 00:35 329 6 -5.0
2017-Feb-23 00:20 337 6 -5.0
2017-Feb-23 00:05 319 8 -5.0
2017-Feb-22 23:50 325 10 -5.0
2017-Feb-22 23:35 314 10 -5.0
2017-Feb-22 23:20 308 7 -5.0
2017-Feb-22 23:05 327 9 -5.0
2017-Feb-22 22:50 322 8 -5.0
2017-Feb-22 22:35 329 7 -5.0
2017-Feb-22 22:20 347 7 -5.0
2017-Feb-22 22:05 329 8 -5.0
2017-Feb-22 21:50 331 8 -5.0
2017-Feb-22 21:35 323 7 -5.0
2017-Feb-22 21:20 320 8 -5.0
2017-Feb-22 21:05 309 10 -5.0
2017-Feb-22 20:50 337 8 -5.0
2017-Feb-22 20:35 318 7 -5.0
2017-Feb-22 20:20 312 8 -5.0
2017-Feb-22 20:05 316 10 -5.0
2017-Feb-22 19:50 312 8 -5.0
2017-Feb-22 19:35 323 8 -5.0
2017-Feb-22 19:20 306 8 -5.0
2017-Feb-22 19:06 324 7 -5.0
2017-Feb-22 18:50 317 8 -5.0
2017-Feb-22 18:35 314 10 -5.0
2017-Feb-22 18:20 329 10 -5.0
2017-Feb-22 18:05 326 8 -5.0
2017-Feb-22 17:50 352 10 -5.0
2017-Feb-22 17:35 322 9 -5.0
2017-Feb-22 17:20 335 10 -5.0
2017-Feb-22 17:05 337 10 -5.0
2017-Feb-22 16:50 332 11 -5.0
2017-Feb-22 16:35 347 8 -4.4
2017-Feb-22 16:19 335 9 -4.4
2017-Feb-22 16:04 331 9 -4.4
2017-Feb-22 15:50 337 8 -4.4
2017-Feb-22 15:34 340 8 -4.4
2017-Feb-22 15:19 329 9 -4.4
2017-Feb-22 15:04 010 9 -4.4
2017-Feb-22 14:49 348 7 -3.9
2017-Feb-22 14:34 335 7 -4.4
2017-Feb-22 14:19 354 9 -4.4
2017-Feb-22 14:04 333 6 -3.9
2017-Feb-22 13:49 339 6 -4.4
2017-Feb-22 13:34 344 8 -3.9
2017-Feb-22 13:19 328 7 -3.9
2017-Feb-22 13:04 351 6 -3.9
2017-Feb-22 12:49 323 6 -3.9
2017-Feb-22 12:34 004 6 -3.9
2017-Feb-22 12:19 322 6 -3.9
2017-Feb-22 12:04 333 6 -3.9
2017-Feb-22 11:49 356 6 -3.9
2017-Feb-22 11:34 330 6 -3.9
2017-Feb-22 11:19 342 6 -3.9
2017-Feb-22 11:04 334 5 -3.9
2017-Feb-22 10:49 328 5 -3.9
2017-Feb-22 10:34 331 5 -4.4
2017-Feb-22 10:19 341 5 -4.4
2017-Feb-22 10:04 333 4 -4.4
2017-Feb-22 09:49 327 4 -4.4
2017-Feb-22 09:34 340 5 -4.4
2017-Feb-22 09:19 348 5 -4.4
2017-Feb-22 09:04 338 4 -4.4
2017-Feb-22 08:49 325 4 -5.0
2017-Feb-22 08:34 339 3 -5.0
2017-Feb-22 08:19 339 4 -4.4
2017-Feb-22 08:04 333 2 -4.4
2017-Feb-22 07:49 313 2 -4.4
2017-Feb-22 07:34 309 3 -5.0
2017-Feb-22 07:19 314 3 -5.0
2017-Feb-22 07:04 323 3 -5.0
2017-Feb-22 06:49 333 2 -5.0
2017-Feb-22 06:34 284 2 -5.0
2017-Feb-22 06:19 284 2 -5.0
2017-Feb-22 06:04 272 2 -5.6